Location: Beverley
(50.2667°N, 107.9667°W)
Time: 13:22:59
(UTC+00:00)

XW-2A - Pass Details

Date: 30 June 2022
Orbit: 395 x 405 km, 97.2° (Epoch: 15 August)

Event Time Altitude Azimuth Distance (km) Brightness Sun altitude
Exits shadow 04:51:53 - 203° (SSW) 2,085 ? -10.0°
Reaches altitude 10° 04:53:43 10° 219° (SW) 1,443 ? -10.1°
Maximum altitude 04:55:58 19° 267° (W) 1,042 ? -10.3°
Drops below altitude 10° 04:58:14 10° 314° (NW) 1,451 ? -10.5°
Sets 05:00:37 0° 334° (NNW) 2,315 ? -10.7°
